This is the latest recevied weather packets stored in our database for station/object W0SS-13. If no packets are shown the sender has not sent any weather packets the latest 10 day(s).
| Time | Temp. | Humidity | Pressure | Rain* | Wind** | Luminosity | Snow |
|---|---|---|---|---|---|---|---|
| 1777867818 | 19.44° C | 51% | 1008.3 hPa | 0 mm | - | 0 W/m² | - |
| 1777867516 | 20° C | 51% | 1008.1 hPa | 0 mm | - | 0 W/m² | - |
| 1777867213 | 20° C | 49% | 1008.1 hPa | 0 mm | - | 0 W/m² | - |
| 1777866910 | 19.44° C | 49% | 1008.3 hPa | 0 mm | - | 0 W/m² | - |
| 1777866606 | 19.44° C | 51% | 1008.3 hPa | 0 mm | - | 0 W/m² | - |
| 1777866303 | 20° C | 50% | 1008.3 hPa | 0 mm | - | 0 W/m² | - |
| 1777866000 | 20° C | 50% | 1008.5 hPa | 0 mm | - | 0 W/m² | - |
| 1777865698 | 20° C | 48% | 1008.2 hPa | 0 mm | - | 0 W/m² | - |
| 1777865395 | 18.89° C | 49% | 1008.3 hPa | 0 mm | - | 0 W/m² | - |
| 1777865092 | 19.44° C | 55% | 1008.6 hPa | 0 mm | - | 0 W/m² | - |
| 1777864789 | 20° C | 52% | 1008.4 hPa | 0 mm | - | 0 W/m² | - |
| 1777864485 | 20.56° C | 50% | 1008.5 hPa | 0 mm | - | 0 W/m² | - |
| 1777864182 | 21.11° C | 47% | 1008.5 hPa | 0 mm | - | 0 W/m² | - |
| 1777863879 | 20.56° C | 47% | 1008.5 hPa | 0 mm | - | 0 W/m² | - |
| 1777863575 | 20.56° C | 50% | 1008.7 hPa | 0 mm | - | 0 W/m² | - |
| 1777863272 | 20.56° C | 46% | 1008.6 hPa | 0 mm | - | 0 W/m² | - |
| 1777862969 | 20° C | 51% | 1008.7 hPa | 0 mm | - | 0 W/m² | - |
| 1777862666 | 20° C | 53% | 1008.6 hPa | 0 mm | - | 0 W/m² | - |
| 1777862363 | 20° C | 52% | 1008.6 hPa | 0 mm | - | 0 W/m² | - |
| 1777862060 | 20.56° C | 51% | 1008.5 hPa | 0 mm | - | 0 W/m² | - |
| 1777861755 | 21.11° C | 48% | 1008.7 hPa | 0 mm | - | 0 W/m² | - |
| 1777861452 | 22.22° C | 46% | 1008.5 hPa | 0 mm | - | 0 W/m² | - |
| 1777861149 | 21.67° C | 44% | 1008.7 hPa | 0 mm | - | 0 W/m² | - |
| 1777860846 | 21.67° C | 45% | 1008.7 hPa | 0 mm | - | 0 W/m² | - |
| 1777860543 | 21.67° C | 51% | 1008.7 hPa | 0 mm | - | 0 W/m² | - |
* Rain latest hour (hover to see other rain measurements)
** Current wind speed in m/s (hover to see current wind gust speed)